{"data":{"norad_id":65963,"epoch":"2026-09-20T03:07:07.485600Z","epoch_age_seconds":172394,"freshness":"FRESH","line1":"1 65963U 25228S   26263.12994775  .00000828  00000+0  13764-3 0  9992","line2":"2 65963  51.9039 205.8509 0001053  59.9747 300.1320 14.79930885 52232","mean_motion":14.79930885,"eccentricity":0.0001053,"inclination_deg":51.9039,"raan_deg":205.8509,"arg_perigee_deg":59.9747,"mean_anomaly_deg":300.132,"bstar":0.00013764,"rev_number":5223,"period_min":97.301841227538,"perigee_km":628.80439708296,"apogee_km":630.28021434474,"semimajor_km":7007.6793057138,"source":"CELESTRAK","updated_at":"2026-09-21T09:00:15.682725Z"}}